Theta_e
293 294 295 295 296 297 298 298 296 294 294 294 294 294 294 297 301 303 303 304 307 314 318 317 318 318 318 318 317 317 318 318 316 314 314 315 317 316 314 313 313 313
293 294 294 295 296 297 297 298 298 296 294 294 294 294 294 295 299 302 303 303 305 310 316 317 317 318 318 318 317 317 317 317 316 314 314 315 316 316 314 313 313 312
291 293 294 295 295 297 297 297 298 297 295 294 294 294 294 294 296 300 302 302 303 306 312 317 317 317 317 317 317 317 317 317 316 314 314 315 315 315 313 313 313 313
290 293 294 295 295 296 297 297 298 298 296 294 294 294 294 294 295 298 301 302 302 303 308 315 317 317 317 317 317 317 317 317 317 315 315 316 316 314 312 312 312 312
290 292 294 295 295 296 297 297 297 298 297 295 294 294 294 294 294 296 299 301 302 303 305 312 317 316 316 317 316 317 316 317 317 316 316 316 316 315 314 313 313 313
288 290 292 294 295 295 296 297 297 298 297 296 294 294 294 294 294 294 297 300 302 303 304 310 316 316 316 317 316 316 316 316 316 316 316 316 316 315 315 315 315 315
286 288 289 291 293 295 296 296 296 297 298 297 295 294 294 294 294 294 295 299 302 303 304 307 313 316 316 316 316 316 316 316 316 316 316 315 315 314 315 315 314 314
283 285 287 289 291 293 295 296 296 297 297 297 296 294 294 294 294 293 294 297 301 303 304 305 311 316 316 316 316 316 316 316 316 316 315 315 315 314 314 314 313 312
280 282 283 286 290 292 293 295 296 297 297 297 297 295 294 294 294 294 293 295 299 302 304 305 308 314 316 315 316 316 316 316 316 316 316 315 315 314 314 314 313 312
279 279 281 283 287 290 292 293 294 296 296 297 297 296 295 294 294 294 293 294 297 301 304 304 306 312 316 315 316 316 316 316 316 316 316 315 315 315 314 314 313 313
278 279 279 281 283 286 289 290 292 294 295 296 296 297 296 295 294 294 294 294 296 300 303 304 305 310 315 315 315 316 315 316 316 316 315 315 315 315 314 314 314 314
278 279 279 280 280 282 285 288 290 292 294 295 296 296 296 296 294 294 293 293 295 298 302 304 305 308 313 316 315 315 315 315 315 315 315 315 315 315 315 314 314 314
278 278 279 279 279 280 282 285 288 290 292 294 295 296 296 295 294 294 293 293 294 297 300 303 305 306 311 315 315 315 315 315 315 315 315 315 315 315 315 315 315 314
277 277 278 279 279 279 280 282 285 288 291 292 294 295 295 295 294 293 293 293 294 296 299 302 304 305 309 314 315 314 314 314 315 315 314 314 314 315 316 316 316 316
276 277 277 278 279 279 279 280 282 284 288 290 291 293 294 295 294 293 293 293 294 296 298 301 303 304 307 313 315 314 314 314 314 314 314 314 314 315 315 315 316 316
275 276 277 277 278 279 279 279 280 282 285 287 289 290 292 293 293 293 293 293 293 295 297 300 303 304 307 311 314 314 314 314 313 314 314 314 314 314 315 315 315 316
274 274 275 277 277 278 278 279 279 280 282 285 286 287 289 291 292 292 292 293 293 294 296 300 303 304 306 310 313 314 314 313 313 313 313 313 314 314 314 314 315 315
273 274 275 276 277 278 278 278 278 279 281 283 285 286 287 289 291 292 292 293 293 293 295 298 302 304 305 308 312 314 313 313 313 313 313 313 314 314 314 314 315 315
273 273 274 275 276 277 278 278 278 279 280 281 283 285 287 288 290 290 291 292 293 293 294 297 301 303 305 307 312 314 313 313 313 313 313 314 314 314 314 314 315 315
272 273 273 274 276 277 278 278 278 279 279 280 282 284 286 287 288 290 291 292 292 292 293 296 300 303 304 307 311 313 313 313 313 313 313 314 314 314 314 314 315 315
272 272 273 274 274 276 278 279 279 279 279 279 280 283 285 286 288 289 290 291 292 292 292 295 299 303 304 306 310 313 313 313 313 313 313 314 314 314 314 315 315 315
271 272 272 273 273 274 277 279 279 279 279 279 280 283 285 286 287 288 289 290 291 291 292 294 299 303 304 306 309 312 313 313 313 313 313 313 313 314 314 314 315 315
270 270 271 271 272 273 275 278 279 279 280 280 281 283 286 287 287 288 289 290 290 291 292 295 299 302 304 306 309 312 313 312 312 312 313 313 313 313 313 313 313 314
269 269 270 270 271 272 274 276 278 279 280 281 282 283 286 289 289 288 289 290 290 292 294 296 299 302 304 306 309 311 312 312 312 312 312 312 312 312 313 312 312 313
269 269 270 270 271 273 274 275 277 279 280 281 282 284 287 289 290 290 290 291 292 293 295 296 299 302 304 306 309 311 312 313 312 311 311 311 311 311 311 311 312 312
269 270 271 272 272 274 275 276 277 279 281 282 283 285 288 290 292 292 292 293 293 294 295 297 299 302 304 306 309 311 312 313 312 311 311 311 311 311 311 311 311 311
Wind_Speed
40 39 38 37 37 38 38 39 42 42 40 38 37 36 36 33 34 35 38 38 34 39 54 56 55 54 53 54 55 56 62 65 65 63 61 60 61 62 63 62 62 61
43 39 39 38 37 38 37 36 37 41 42 39 37 36 35 33 33 35 38 39 36 34 48 57 54 54 55 54 55 56 59 64 65 63 61 61 61 62 64 64 62 61
43 40 39 38 36 36 36 36 37 40 43 40 36 36 35 34 32 33 35 39 39 36 40 55 56 54 57 56 55 57 58 63 66 63 60 60 60 62 63 63 63 61
39 39 38 37 36 35 34 35 37 39 41 40 37 36 35 34 33 31 32 35 39 39 38 48 57 54 56 56 55 58 58 61 67 64 60 60 61 62 63 62 62 62
36 38 38 36 36 35 34 34 36 38 40 41 37 35 35 34 33 31 31 32 35 38 39 43 57 56 54 56 56 58 58 60 65 64 60 62 62 62 63 61 61 61
35 34 35 35 35 35 35 35 36 37 40 40 37 35 34 34 33 32 31 31 32 35 38 40 54 59 55 57 58 58 59 59 63 64 61 62 63 62 64 63 61 60
38 35 34 35 34 35 36 36 35 36 39 39 37 35 34 34 33 33 31 30 31 33 37 39 47 59 58 57 60 60 59 59 62 64 61 61 63 64 64 64 61 59
44 40 38 37 35 34 34 36 35 35 38 39 38 36 35 34 33 34 33 31 30 33 37 39 42 57 60 57 60 60 58 59 61 64 63 62 64 66 65 63 60 59
46 44 40 39 38 35 32 33 34 35 36 37 38 38 36 34 34 34 35 33 31 33 37 38 40 51 61 59 60 60 58 59 62 65 65 64 65 67 66 63 61 60
43 42 41 38 38 38 35 33 32 34 36 36 37 39 37 34 35 35 36 34 32 32 35 37 38 45 59 61 60 62 60 60 63 65 66 66 66 67 67 65 63 63
41 40 40 37 35 38 39 35 32 32 35 35 36 40 39 35 36 37 37 35 32 32 32 36 37 41 56 62 60 62 63 62 64 65 66 68 67 67 69 68 65 65
39 38 37 36 36 38 38 36 32 30 32 33 35 39 40 38 37 38 38 36 33 31 31 34 37 40 53 63 60 61 63 63 64 65 66 67 67 68 69 69 69 66
39 37 36 36 36 37 38 38 36 33 30 29 32 37 40 38 36 38 39 36 33 31 30 33 37 38 46 62 63 61 64 64 64 65 65 66 67 67 69 70 71 69
42 39 36 36 35 36 39 39 38 38 36 30 28 33 38 37 35 38 39 35 32 31 30 31 38 38 41 58 64 60 63 64 64 66 64 64 66 66 68 69 71 70
43 42 38 37 36 35 37 39 39 39 41 39 32 30 34 35 34 37 40 35 31 30 29 29 36 37 40 56 65 60 62 65 64 66 65 63 65 65 66 68 70 71
42 43 41 39 37 36 36 38 40 39 41 44 39 33 32 32 33 37 39 35 31 30 29 29 35 36 38 53 67 63 63 65 63 64 65 64 65 66 66 67 68 70
42 42 41 41 39 38 37 39 41 40 40 44 43 40 36 34 35 38 39 35 32 31 30 28 35 37 35 48 66 65 63 66 64 64 65 64 65 66 66 67 67 67
42 41 41 42 40 39 39 39 40 40 40 43 44 44 42 40 41 42 41 38 34 33 32 29 34 38 34 43 63 67 64 66 66 64 65 64 65 66 66 67 66 65
42 42 42 42 42 41 40 40 41 41 41 41 43 44 43 44 45 44 44 42 38 36 35 31 33 38 34 41 62 68 64 66 66 65 65 65 65 66 65 66 66 65
42 43 43 43 42 42 42 42 41 40 40 40 40 40 42 43 45 45 46 45 41 39 37 34 33 37 34 40 61 70 65 66 66 64 66 66 66 66 65 66 66 66
42 42 43 44 43 41 41 43 42 39 38 38 36 36 39 42 44 46 46 46 43 41 39 37 33 36 33 39 59 71 67 66 67 64 65 65 65 66 66 66 67 66
42 41 42 45 45 40 38 40 40 37 36 36 34 33 34 38 43 44 44 44 44 42 40 38 33 34 32 38 57 70 67 66 66 64 65 64 64 65 65 65 66 66
43 43 44 44 43 40 37 37 38 37 35 34 33 31 31 35 39 42 43 44 43 41 39 37 33 33 32 39 57 68 66 67 66 64 64 64 64 65 65 63 63 64
44 44 44 43 42 40 37 35 37 39 36 33 32 30 29 32 34 36 39 40 38 38 36 36 33 32 32 40 59 68 66 66 66 63 63 63 63 64 63 62 62 62
46 44 43 42 41 39 36 34 36 38 36 32 31 29 27 29 29 29 31 32 33 34 34 34 33 32 31 42 60 67 65 66 65 62 62 62 62 63 62 62 61 60
50 47 43 41 38 35 33 32 33 35 34 31 30 28 26 26 27 26 28 30 31 32 32 31 31 32 31 43 60 63 60 64 64 61 62 62 62 63 62 61 61 60
Wind_Direction
288 284 281 279 275 275 276 278 288 294 293 298 301 303 308 296 278 271 266 273 275 240 220 217 217 215 213 211 208 206 208 208 205 203 205 205 204 202 199 199 200 200
289 285 280 279 275 272 274 274 280 289 291 293 299 300 306 304 288 276 268 269 278 258 223 214 215 214 210 209 209 206 205 206 205 203 204 204 203 202 201 200 201 201
285 288 281 277 276 272 272 273 273 282 287 289 295 298 303 307 297 282 272 266 271 272 238 215 212 212 207 204 206 206 206 207 205 204 204 203 202 201 201 200 200 200
282 287 285 278 277 274 271 273 271 274 283 288 291 297 301 306 303 290 278 268 264 272 259 224 212 210 207 204 205 206 208 209 206 204 204 202 201 200 199 199 200 200
289 288 287 280 277 277 272 271 271 271 278 285 289 294 299 303 305 296 282 273 263 266 268 237 214 210 209 207 207 206 208 211 208 205 204 202 200 200 199 199 200 200
293 292 294 289 280 277 275 272 271 270 274 281 286 290 296 299 302 302 290 278 266 262 267 247 216 209 211 209 208 208 207 209 208 204 203 203 201 200 200 200 200 199
290 287 293 297 292 283 277 273 271 270 270 278 284 286 292 296 297 302 297 283 270 259 261 256 224 209 210 210 208 208 207 206 206 204 203 204 201 199 200 200 200 199
297 291 286 287 292 291 284 276 271 270 270 274 282 283 286 293 294 299 300 288 274 258 253 259 238 213 208 209 206 206 206 204 204 203 202 202 199 199 200 200 201 202
304 303 294 282 280 286 290 285 275 271 272 272 278 283 284 288 291 295 299 292 277 261 250 255 248 219 207 208 207 205 205 203 202 203 202 200 200 200 199 199 202 206
302 305 304 293 280 277 283 291 284 274 274 272 273 279 282 286 290 290 294 293 280 266 251 250 253 228 208 207 209 207 205 203 201 202 202 202 202 201 200 201 204 208
302 302 304 302 291 279 275 284 291 283 278 276 273 275 278 284 289 287 289 291 283 272 256 246 251 237 213 207 208 207 206 205 203 202 203 203 203 203 202 203 205 208
302 301 301 301 298 289 276 272 281 285 282 279 274 273 275 279 285 285 285 288 284 276 262 245 246 242 219 209 208 207 204 205 204 203 204 204 204 205 204 204 204 206
301 300 299 300 298 297 289 275 267 269 273 277 275 274 276 277 279 281 281 285 284 278 268 246 241 246 227 210 207 206 203 204 204 203 203 204 204 205 205 205 204 205
302 300 298 299 296 296 297 288 273 262 262 269 272 272 275 274 273 276 277 281 283 278 272 251 238 247 236 212 205 204 203 203 204 203 203 203 203 204 205 205 205 205
301 300 297 297 296 292 294 293 285 269 260 263 267 269 274 272 269 272 273 277 282 278 274 258 239 244 240 215 205 205 204 203 204 203 202 202 202 203 204 205 205 205
299 298 295 294 294 291 290 291 290 281 265 261 263 264 269 271 269 269 270 274 282 281 277 261 238 240 242 218 207 208 207 203 203 203 202 202 202 202 203 204 205 206
298 297 294 292 291 290 290 289 290 288 275 264 262 261 261 265 266 268 269 272 281 285 282 265 237 235 243 223 208 207 207 204 203 203 202 202 202 202 203 203 204 207
297 297 295 291 288 287 289 290 291 290 282 272 265 261 259 259 259 264 269 271 278 284 283 270 241 232 241 229 211 206 206 205 204 203 202 202 202 203 203 203 204 207
298 298 297 294 291 289 289 291 290 287 285 279 271 263 260 260 259 263 268 269 274 281 282 275 248 232 238 233 215 207 207 206 204 203 203 203 204 204 204 204 205 208
298 298 298 297 296 293 289 290 291 287 283 282 277 267 260 260 259 260 265 266 271 278 280 279 256 232 236 235 216 208 208 206 204 204 204 205 206 206 206 206 207 209
300 299 297 296 297 294 288 287 289 287 282 281 280 271 262 260 258 259 263 264 269 275 278 279 259 231 234 236 216 206 206 205 204 205 205 205 207 208 208 209 209 211
299 298 296 295 296 294 287 283 285 285 282 279 277 272 266 262 257 257 260 262 266 273 277 278 259 230 232 235 215 205 203 202 202 205 205 205 207 208 210 211 211 211
302 300 298 297 297 294 287 282 281 282 283 279 273 269 268 266 259 256 258 261 267 272 273 273 256 229 229 232 215 205 202 201 201 203 205 206 207 208 209 210 210 211
306 302 298 296 296 294 287 281 281 282 282 279 273 268 267 266 262 260 259 261 266 268 268 271 256 229 227 228 214 204 203 201 200 202 204 205 206 207 208 210 211 211
314 309 304 300 299 296 287 280 281 283 282 276 269 266 266 263 260 260 259 259 265 265 267 270 253 228 227 224 210 202 202 202 201 201 203 204 205 206 208 210 211 212
319 316 312 307 303 298 289 279 276 278 279 273 265 266 269 263 256 257 260 262 267 267 268 265 243 225 225 220 208 202 203 203 201 202 203 204 206 207 208 209 211 213